Date String (YYYY-MM-DD hh:mm:ss) UTC,Instrument flags,absolute air pressure of the measurement (hPa),sample flow rate (lpm),inlet stack bypass flow (lpm),air temperature of the measurement (°C),ambient temperature measured by the external sensor (°C),aerosol sample conditioner tube jacket temperature (°C),OPC LED temperature (°C),internal box temperature (°C),relative humidity of the measurement (%),span deviation,mass concentration of particles derived from Lorenz-Mie calculation of OPC scattering (μg/m³),mass concentration of particles derived from Lorenz-Mie calculation of OPC scattering (μg/m³),mass concentration of particles derived from Lorenz-Mie calculation of OPC scattering (μg/m³)
DateTimeUTC,F1_M11,P_M11,Q1_M11,Q2_M11,T1_M11,T2_M11,T3_M11,T4_M11,T5_M11,U1_M11,ZSPAN_M11,X0_M11,X2_M11,X1_M11
2023-08-26 12:00:00,SystemResetWarning,0839.5,5.00,000.00,031.1,027.7,000.0,039.3,031.1,35.0,-001.6,0011.01,0005.62,0005.12
2023-08-26 12:01:00,SystemResetWarning,0839.5,5.01,000.00,031.2,027.7,000.0,039.3,031.2,34.7,-001.3,0011.11,0005.60,0005.12
2023-08-26 12:02:00,SystemResetWarning,0839.5,4.99,000.00,031.3,027.8,000.0,039.3,031.2,34.6,-001.5,0011.08,0005.60,0005.12
2023-08-26 12:03:00,SystemResetWarning,0839.5,5.01,000.00,031.3,027.8,000.0,039.3,031.2,34.6,-001.7,0011.14,0005.62,0005.12
2023-08-26 12:04:00,SystemResetWarning,0839.5,4.98,000.00,031.3,026.9,000.0,039.3,031.1,34.6,-001.3,0010.66,0005.65,0005.13
2023-08-26 12:05:00,SystemResetWarning,0839.5,5.01,000.00,031.3,025.3,000.0,039.1,030.9,34.6,-001.0,0010.29,0005.65,0005.15
2023-08-26 12:06:00,SystemResetWarning,0839.5,5.00,000.00,031.3,024.7,000.0,039.0,030.7,34.8,-000.4,0009.98,0005.69,0005.19
2023-08-26 12:07:00,SystemResetWarning,0839.4,5.01,000.00,031.0,024.8,000.0,039.1,030.4,35.3,-000.1,0010.76,0005.73,0005.22
2023-08-26 12:08:00,SystemResetWarning,0839.5,5.00,000.00,031.1,025.2,000.0,039.1,030.5,35.3,-000.6,0011.29,0005.78,0005.26
2023-08-26 12:09:00,SystemResetWarning,0839.5,5.00,000.00,031.3,025.6,000.0,039.1,030.7,34.9,-000.7,0011.42,0005.84,0005.32
2023-08-26 12:10:00,SystemResetWarning,0839.5,4.98,000.00,031.5,026.0,000.0,039.1,030.8,34.3,-000.2,0011.34,0005.92,0005.41
2023-08-26 12:11:00,SystemResetWarning,0839.5,5.00,000.00,031.5,026.3,000.0,039.1,030.9,34.1,-000.4,0011.16,0005.98,0005.48
2023-08-26 12:12:00,SystemResetWarning,0839.6,5.00,000.00,031.6,026.6,000.0,039.2,030.9,34.0,-000.5,0011.06,0006.07,0005.55
2023-08-26 12:13:00,SystemResetWarning,0839.6,5.01,000.00,031.5,026.8,000.0,039.2,030.9,34.0,-000.7,0011.22,0006.15,0005.63
2023-08-26 12:14:00,SystemResetWarning,0839.6,5.01,000.00,031.5,027.0,000.0,039.3,030.9,33.9,-000.9,0011.59,0006.22,0005.71
2023-08-26 12:15:00,SystemResetWarning,0839.7,5.00,000.00,031.5,027.1,000.0,039.3,031.0,33.9,-001.0,0011.68,0006.28,0005.76
2023-08-26 12:16:00,SystemResetWarning,0839.7,5.00,000.00,031.5,027.3,000.0,039.4,031.0,34.1,-001.0,0011.69,0006.34,0005.80
2023-08-26 12:17:00,SystemResetWarning,0839.7,5.00,000.00,031.4,027.4,000.0,039.4,031.0,34.1,-000.9,0011.70,0006.37,0005.83
2023-08-26 12:18:00,SystemResetWarning,0839.7,5.00,000.00,031.4,027.5,000.0,039.4,031.0,34.2,-001.1,0011.15,0006.41,0005.86
2023-08-26 12:19:00,SystemResetWarning,0839.7,5.00,000.00,031.3,027.5,000.0,039.4,031.0,34.2,-000.7,0010.62,0006.39,0005.87
2023-08-26 12:20:00,SystemResetWarning,0839.7,5.01,000.00,031.3,027.6,000.0,039.5,031.0,34.3,-000.5,0010.46,0006.40,0005.89
2023-08-26 12:21:00,SystemResetWarning,0839.7,5.00,000.00,031.3,027.7,000.0,039.5,031.1,34.5,-000.6,0010.35,0006.40,0005.89
2023-08-26 12:22:00,SystemResetWarning,0839.7,4.99,000.00,031.2,027.7,000.0,039.5,031.1,34.6,-000.4,0010.23,0006.40,0005.90
2023-08-26 12:23:00,SystemResetWarning,0839.7,4.99,000.00,031.2,027.7,000.0,039.4,031.1,34.8,-000.6,0010.19,0006.40,0005.91
2023-08-26 12:24:00,SystemResetWarning,0839.7,5.00,000.00,031.2,027.8,000.0,039.4,031.1,34.7,-000.7,0010.12,0006.38,0005.91
2023-08-26 12:25:00,SystemResetWarning,0839.7,4.99,000.00,031.1,027.8,000.0,039.4,031.2,34.7,-001.1,0009.95,0006.38,0005.92
2023-08-26 12:26:00,SystemResetWarning,0839.7,5.00,000.00,031.1,027.8,000.0,039.4,031.2,34.8,-001.3,0010.03,0006.38,0005.93
2023-08-26 12:27:00,SystemResetWarning,0839.7,5.00,000.00,031.1,026.8,000.0,039.3,031.1,34.9,-001.5,0010.17,0006.40,0005.96
2023-08-26 12:28:00,SystemResetWarning,0839.7,4.99,000.00,031.0,025.2,000.0,039.1,030.8,35.0,-001.8,0010.28,0006.35,0005.95
2023-08-26 12:29:00,SystemResetWarning,0839.7,5.04,000.00,030.9,024.7,000.0,039.0,030.6,35.2,-001.8,0010.44,0006.31,0005.92
2023-08-26 12:30:00,SystemResetWarning,0839.7,5.00,000.00,030.9,024.9,000.0,039.0,030.4,35.2,-001.9,0010.51,0006.33,0005.91
2023-08-26 12:31:00,SystemResetWarning,0839.7,5.01,000.00,031.1,025.2,000.0,039.0,030.6,34.9,-002.1,0010.56,0006.37,0005.94
2023-08-26 12:32:00,SystemResetWarning,0839.7,4.97,000.00,031.3,025.6,000.0,039.0,030.8,34.5,-002.2,0010.65,0006.42,0005.96
2023-08-26 12:33:00,SystemResetWarning,0839.8,5.00,000.00,031.3,026.0,000.0,039.0,030.8,34.3,-002.4,0010.77,0006.43,0005.98
2023-08-26 12:34:00,SystemResetWarning,0839.8,5.01,000.00,031.4,026.3,000.0,039.1,030.8,34.3,-002.2,0010.84,0006.47,0006.01
2023-08-26 12:35:00,SystemResetWarning,0839.8,5.00,000.00,031.4,026.6,000.0,039.1,030.8,34.3,-001.9,0010.86,0006.48,0006.02
2023-08-26 12:36:00,SystemResetWarning,0839.7,5.00,000.00,031.4,026.8,000.0,039.2,030.9,34.3,-001.3,0010.75,0006.46,0005.99
2023-08-26 12:37:00,SystemResetWarning,0839.8,5.00,000.00,031.3,027.0,000.0,039.2,030.9,34.4,-001.2,0010.55,0006.46,0005.97
2023-08-26 12:38:00,SystemResetWarning,0839.8,4.99,000.00,031.3,027.1,000.0,039.3,030.9,34.5,-001.0,0011.30,0006.44,0005.97
2023-08-26 12:39:00,SystemResetWarning,0839.8,5.00,000.00,031.3,027.2,000.0,039.3,030.9,34.6,-001.1,0011.51,0006.49,0005.99
2023-08-26 12:40:00,SystemResetWarning,0839.8,5.00,000.00,031.2,027.3,000.0,039.3,030.9,34.7,-001.1,0011.08,0006.55,0006.02
2023-08-26 12:41:00,SystemResetWarning,0839.8,5.00,000.00,031.2,027.4,000.0,039.3,031.0,34.7,-001.1,0011.07,0006.56,0006.03
2023-08-26 12:42:00,SystemResetWarning,0839.8,5.00,000.00,031.2,027.5,000.0,039.3,031.0,34.7,-000.9,0011.56,0006.54,0006.02
2023-08-26 12:43:00,SystemResetWarning,0839.9,5.00,000.00,031.1,027.6,000.0,039.3,031.0,34.8,-000.7,0011.96,0006.54,0006.04
2023-08-26 12:44:00,SystemResetWarning,0839.9,5.00,000.00,031.1,027.6,000.0,039.3,031.0,35.0,-000.4,0012.13,0006.61,0006.11
2023-08-26 12:45:00,SystemResetWarning,0839.9,5.00,000.00,031.0,027.7,000.0,039.3,031.0,35.0,-000.3,0012.45,0006.67,0006.16
2023-08-26 12:46:00,SystemResetWarning,0839.9,5.04,000.00,031.1,027.7,000.0,039.3,031.1,34.9,-000.2,0012.83,0006.74,0006.22
2023-08-26 12:47:00,SystemResetWarning,0839.9,4.96,000.00,031.3,027.8,000.0,039.3,031.2,34.6,-000.3,0013.83,0006.91,0006.37
2023-08-26 12:48:00,SystemResetWarning,0839.9,5.02,000.00,031.3,027.8,000.0,039.3,031.2,34.5,-000.3,0013.98,0007.04,0006.52
2023-08-26 12:49:00,SystemResetWarning,0839.9,5.00,000.00,031.4,027.8,000.0,039.3,031.2,34.5,-000.6,0013.31,0007.14,0006.63
2023-08-26 12:50:00,SystemResetWarning,0839.9,4.98,000.00,031.4,026.7,000.0,039.2,031.1,34.4,-000.7,0013.01,0007.24,0006.72
2023-08-26 12:51:00,SystemResetWarning,0839.9,5.01,000.00,031.4,025.1,000.0,039.1,030.9,34.3,-000.7,0013.05,0007.30,0006.81
2023-08-26 12:52:00,SystemResetWarning,0839.9,5.01,000.00,031.3,024.7,000.0,039.0,030.7,34.5,-000.7,0013.25,0007.43,0006.95
2023-08-26 12:53:00,SystemResetWarning,0840.0,4.98,000.00,031.0,024.9,000.0,039.1,030.4,35.0,-000.9,0013.02,0007.54,0007.06
2023-08-26 12:54:00,SystemResetWarning,0839.9,5.01,000.00,031.0,025.3,000.0,039.1,030.5,35.3,-001.3,0012.45,0007.60,0007.11
2023-08-26 12:55:00,SystemResetWarning,0839.9,5.01,000.00,031.1,025.7,000.0,039.1,030.7,34.9,-001.6,0012.36,0007.58,0007.09
2023-08-26 12:56:00,SystemResetWarning,0840.0,4.96,000.00,031.3,026.0,000.0,039.1,030.8,34.5,-001.8,0012.05,0007.58,0007.09
2023-08-26 12:57:00,SystemResetWarning,0839.9,5.02,000.00,031.4,026.3,000.0,039.1,030.9,34.4,-002.0,0011.94,0007.67,0007.20
2023-08-26 12:58:00,SystemResetWarning,0840.0,5.00,000.00,031.4,026.6,000.0,039.1,030.9,34.4,-002.3,0011.29,0007.73,0007.28
2023-08-26 12:59:00,SystemResetWarning,0840.0,5.00,000.00,031.4,026.8,000.0,039.2,030.9,34.5,-002.5,0011.22,0007.79,0007.31
